KK7N Weather Reports


time (UTC)temp
F
wind
direction
speed
knots
gust
knots
rain 1hr
in
rain 24hr
in
rain mn
in
humidity
%
barometer
mb
20260904091604 53 0 0.0 0.0 0.00 0.13 0.01 91 1010.5
20260904090049 53 0 0.0 0.0 0.00 0.13 0.01 91 1010.5
20260904084553 53 0 0.0 0.0 0.00 0.14 0.01 91 1010.5
20260904083106 54 0 0.0 0.0 0.00 0.14 0.01 91 1010.5
20260904081553 54 0 0.0 0.0 0.00 0.14 0.01 91 1010.5
20260904080052 54 0 0.0 0.9 0.01 0.14 0.01 90 1010.4
20260904074603 54 0 0.0 2.6 0.01 0.15 0.01 91 1010.4
20260904073051 55 169 0.0 1.7 0.01 0.15 0.01 91 1010.4
20260904071553 55 0 0.0 3.5 0.01 0.15 0.01 91 1010.5
20260904070112 55 0 0.0 0.0 0.00 0.14 0.00 92 1010.4
20260904064550 55 0 0.0 0.0 0.00 0.14 0.14 92 1010.4
20260904063103 55 0 0.0 0.0 0.00 0.14 0.14 92 1010.6
20260904061552 55 0 0.0 0.0 0.00 0.14 0.14 92 1010.6
20260904060056 55 0 0.0 0.0 0.00 0.14 0.14 93 1010.6
20260904054554 55 0 0.0 0.0 0.00 0.14 0.14 93 1010.7
20260904053054 55 0 0.0 0.0 0.00 0.14 0.14 93 1010.7
20260904051554 55 0 0.0 0.0 0.00 0.14 0.14 93 1010.7
20260904050056 55 0 0.0 2.6 0.00 0.14 0.14 92 1010.8
20260904044603 55 0 0.0 0.0 0.00 0.14 0.14 92 1010.7
20260904043057 56 0 0.0 0.0 0.00 0.14 0.14 92 1010.8
20260904041559 56 0 0.0 0.0 0.00 0.14 0.14 92 1010.6
20260904040109 56 0 0.9 2.6 0.00 0.14 0.14 92 1010.7
20260904034554 56 0 0.0 0.0 0.00 0.14 0.14 92 1010.5
20260904033051 56 0 0.0 0.0 0.00 0.14 0.14 92 1010.4
20260904031550 57 0 0.0 0.9 0.00 0.14 0.14 91 1010.2
20260904030052 56 0 0.0 0.9 0.00 0.14 0.14 91 1009.9
20260904024555 57 0 0.0 0.0 0.00 0.14 0.14 90 1010.0
20260904023053 57 0 0.0 0.9 0.00 0.14 0.14 90 1010.0
20260904021549 57 0 0.0 0.0 0.00 0.14 0.14 91 1009.9
20260904020054 57 0 0.0 2.6 0.00 0.14 0.14 90 1009.9
20260904014638 57 0 0.0 1.7 0.00 0.15 0.14 90 1010.1
20260904013054 57 102 0.0 2.6 0.00 0.15 0.14 90 1010.3
20260904011553 57 113 0.9 2.6 0.00 0.15 0.14 90 1010.2
20260904004554 57 101 0.9 2.6 0.01 0.20 0.14 91 1010.2
20260904003101 57 0 0.0 0.0 0.01 0.20 0.14 91 1010.5
20260904001551 57 0 0.0 0.0 0.07 0.20 0.14 88 1010.4
20260903234559 56 0 0.0 1.7 0.06 0.35 0.13 90 1010.3
20260903233110 58 5 0.0 9.6 0.06 0.35 0.13 85 1010.4
20260903231553 62 232 6.1 13.9 0.00 0.29 0.07 70 1010.3
20260903230055 62 72 0.0 1.7 0.00 0.29 0.07 68 1009.9
20260903224555 62 75 0.9 3.5 0.00 0.29 0.07 69 1009.9
20260903223111 62 57 0.9 2.6 0.00 0.29 0.07 70 1010.1
20260903221555 62 57 0.9 3.5 0.00 0.29 0.07 69 1010.1
20260903220122 62 304 0.0 5.2 0.00 0.29 0.07 68 1010.1
20260903214552 61 171 3.5 11.3 0.00 0.30 0.07 69 1010.3
20260903213054 61 248 2.6 11.3 0.00 0.30 0.07 66 1010.3
20260903211555 61 185 5.2 11.3 0.00 0.30 0.07 66 1010.4
20260903210057 62 220 5.2 12.2 0.00 0.30 0.07 68 1010.3
20260903204553 62 155 0.9 11.3 0.00 0.43 0.07 70 1010.2
20260903203104 61 103 1.7 9.6 0.00 0.43 0.07 77 1010.2
20260903201554 61 171 2.6 13.0 0.00 0.43 0.07 74 1010.3
20260903200112 61 211 3.5 7.8 0.00 0.43 0.07 71 1010.4
20260903194557 61 169 2.6 11.3 0.00 0.50 0.07 73 1010.3
20260903193052 60 216 5.2 14.8 0.00 0.50 0.07 77 1010.6
20260903191554 61 167 2.6 10.4 0.00 0.50 0.07 77 1010.4
20260903190048 60 252 1.7 6.1 0.00 0.50 0.07 80 1010.4
20260903184553 62 180 2.6 6.1 0.00 0.58 0.07 73 1010.4
20260903183050 61 92 1.7 3.5 0.00 0.58 0.07 79 1010.2
20260903181546 61 0 0.0 2.6 0.00 0.58 0.07 77 1010.2
20260903180053 60 90 1.7 5.2 0.00 0.58 0.07 77 1010.3
20260903174550 60 110 0.9 2.6 0.00 0.58 0.07 81 1010.3
20260903173056 58 0 0.0 0.0 0.00 0.58 0.07 89 1010.4
20260903171551 58 0 0.0 0.0 0.00 0.58 0.07 89 1010.6
20260903170059 57 0 0.0 0.9 0.00 0.58 0.07 87 1010.6
20260903164549 55 0 0.0 0.0 0.01 0.58 0.07 89 1010.6
20260903163054 54 0 0.0 0.0 0.01 0.58 0.07 90 1010.6
20260903161557 54 0 0.0 2.6 0.01 0.58 0.07 89 1010.8
20260903160051 54 0 0.0 0.0 0.02 0.58 0.07 90 1010.7
20260903154551 54 0 0.9 3.5 0.02 0.58 0.06 89 1010.7
20260903153047 54 133 0.0 1.7 0.03 0.58 0.06 89 1010.8
20260903151558 54 0 0.0 0.0 0.03 0.58 0.06 89 1010.8
20260903150108 54 163 0.0 1.7 0.02 0.57 0.05 89 1010.6
20260903144556 54 168 0.0 1.7 0.01 0.56 0.04 88 1010.5
20260903143100 54 0 0.0 0.9 0.00 0.55 0.03 87 1010.6
20260903141558 54 182 0.0 2.6 0.00 0.55 0.03 87 1010.3
20260903140057 54 163 0.9 5.2 0.00 0.55 0.03 86 1010.2
20260903134608 54 177 0.9 4.3 0.00 0.55 0.03 86 1009.9
20260903133049 54 136 0.9 4.3 0.00 0.55 0.03 87 1010.0
20260903131556 54 173 0.9 4.3 0.00 0.55 0.03 88 1009.9
20260903130101 53 138 0.9 3.5 0.00 0.55 0.03 88 1009.9
20260903124559 53 180 1.7 4.3 0.00 0.55 0.03 89 1010.1
20260903123058 53 155 0.9 1.7 0.00 0.55 0.03 89 1009.9
20260903121555 53 0 0.0 2.6 0.00 0.55 0.03 89 1010.2
20260903120109 53 0 0.0 0.0 0.00 0.55 0.03 89 1010.3
20260903114555 53 0 0.0 0.0 0.00 0.55 0.03 89 1010.3
20260903113056 54 0 0.0 0.0 0.00 0.55 0.03 89 1010.2
20260903111552 54 0 0.0 0.0 0.00 0.55 0.03 88 1010.3
20260903110058 54 0 0.0 0.0 0.00 0.55 0.03 88 1010.2
20260903104609 54 0 0.0 0.0 0.01 0.55 0.03 88 1010.2
20260903103058 54 0 0.0 3.5 0.01 0.55 0.03 89 1010.3
20260903101554 54 158 0.0 3.5 0.01 0.55 0.03 89 1010.0
20260903100046 54 173 0.0 2.6 0.01 0.55 0.03 89 1010.0
20260903094601 54 0 0.0 0.0 0.01 0.54 0.02 90 1010.0
20260903093059 54 0 0.0 0.0 0.01 0.54 0.02 90 1010.0